Overview Statistics Trail Chart Weather Telemetry Raw packets
 

This is the latest recevied weather packets stored in our database for station/object DG1GMY-10. If no packets are shown the sender has not sent any weather packets the latest 10 day(s).

<< 1 2 3 4 >>
Time Temp. Humidity Pressure Rain* Wind** Luminosity Snow
1788633416 20.56° C 43% 1026.2 hPa - - - -
1788629815 25.56° C 31% 1025.4 hPa - - - -
1788626215 32.78° C 23% 1024.9 hPa - - - -
1788622615 38.89° C 18% 1024.6 hPa - - - -
1788619015 37.78° C 20% 1024.8 hPa - - - -
1788615415 32.22° C 28% 1024.8 hPa - - - -
1788611815 25° C 43% 1025.1 hPa - - - -
1788608215 22.78° C 51% 1025.4 hPa - - - -
1788604615 22.22° C 61% 1025.3 hPa - - - -
1788601015 22.22° C 74% 1025.2 hPa - - - -
1788597415 20.56° C 90% 1025 hPa - - - -
1788593814 20° C 100% 1024.3 hPa - - - -
1788590214 18.33° C 100% 1023.7 hPa - - - -
1788586614 17.22° C 100% 1022.8 hPa - - - -
1788583014 16.11° C 100% 1022.3 hPa - - - -
1788579414 16.11° C 100% 1021.9 hPa - - - -
1788575814 17.22° C 100% 1022 hPa - - - -
1788572214 19.44° C 100% 1021.8 hPa - - - -
1788568614 23.33° C 69% 1020.2 hPa - - - -
1788565014 23.89° C 63% 1019.6 hPa - - - -
1788561413 23.89° C 63% 1019 hPa - - - -
1788557813 23.89° C 54% 1018.3 hPa - - - -
1788554212 25° C 50% 1017.3 hPa - - - -
1788550612 25° C 50% 1017.1 hPa - - - -
1788547012 27.22° C 46% 1016.5 hPa - - - -

* Rain since midnight (hover to see other rain measurements)
** Current wind speed in m/s (hover to see current wind gust speed)